This is the latest recevied weather packets stored in our database for station/object KI7MOQ. If no packets are shown the sender has not sent any weather packets the latest 10 day(s).
| Time | Temp. | Humidity | Pressure | Rain* | Wind** | Luminosity | Snow |
|---|---|---|---|---|---|---|---|
| 1777419641 | 15° C | 53% | 1025.1 hPa | 0 mm | - | 57 W/m² | - |
| 1777419339 | 15° C | 52% | 1025.2 hPa | 0 mm | - | 64 W/m² | - |
| 1777419037 | 15° C | 54% | 1025.2 hPa | 0 mm | - | 98 W/m² | - |
| 1777418737 | 15° C | 54% | 1025.3 hPa | 0 mm | - | 105 W/m² | - |
| 1777418434 | 15° C | 56% | 1025.1 hPa | 0 mm | - | 91 W/m² | - |
| 1777418130 | 15° C | 54% | 1025.4 hPa | 0 mm | - | 98 W/m² | - |
| 1777417827 | 15° C | 54% | 1025.3 hPa | 0 mm | - | 83 W/m² | - |
| 1777417527 | 15° C | 55% | 1025.3 hPa | 0 mm | - | 106 W/m² | - |
| 1777417224 | 14.44° C | 56% | 1025.5 hPa | 0 mm | - | 108 W/m² | - |
| 1777416920 | 14.44° C | 56% | 1025.5 hPa | 0 mm | - | 101 W/m² | - |
| 1777416615 | 14.44° C | 56% | 1025.4 hPa | 0 mm | - | 96 W/m² | - |
| 1777416311 | 14.44° C | 55% | 1025.5 hPa | 0 mm | - | 91 W/m² | - |
| 1777416010 | 15° C | 51% | 1025.5 hPa | 0 mm | - | 108 W/m² | - |
| 1777415706 | 14.44° C | 53% | 1025.6 hPa | 0 mm | - | 93 W/m² | - |
| 1777415403 | 14.44° C | 53% | 1025.6 hPa | 0 mm | - | 92 W/m² | - |
| 1777415102 | 14.44° C | 52% | 1025.7 hPa | 0 mm | - | 108 W/m² | - |
| 1777414802 | 15° C | 52% | 1025.6 hPa | 0 mm | - | 120 W/m² | - |
| 1777414498 | 14.44° C | 52% | 1025.6 hPa | 0 mm | - | 133 W/m² | - |
| 1777414197 | 14.44° C | 54% | 1025.6 hPa | 0 mm | - | 140 W/m² | - |
| 1777413893 | 14.44° C | 55% | 1025.5 hPa | 0 mm | - | 131 W/m² | - |
| 1777413588 | 15° C | 53% | 1025.7 hPa | 0 mm | - | 90 W/m² | - |
| 1777413285 | 15° C | 55% | 1025.9 hPa | 0 mm | - | 74 W/m² | - |
| 1777412980 | 14.44° C | 55% | 1025.8 hPa | 0 mm | - | 66 W/m² | - |
| 1777412679 | 14.44° C | 55% | 1025.9 hPa | 0 mm | - | 56 W/m² | - |
| 1777412377 | 14.44° C | 55% | 1025.9 hPa | 0 mm | - | 94 W/m² | - |
* Rain latest hour (hover to see other rain measurements)
** Current wind speed in m/s (hover to see current wind gust speed)